Location: Unspecified
(35.6961°N, 0.0000°E)
Time: 22:14:07
(UTC+00:00)

Vanguard 2 Rocket - Pass Details

Date: 31 May 2019
Orbit: 554 x 3326 km, 32.9° (Epoch: 20 June)

Event Time Altitude Azimuth Distance (km) Brightness Sun altitude
Rises 03:45:07 0° 243° (WSW) 7,015 - -11.2°
Reaches altitude 10° 03:49:36 10° 242° (WSW) 6,154 - -10.5°
Exits shadow 03:49:57 11° 242° (WSW) 6,088 10.4 -10.4°
Maximum altitude 04:09:55 71° 163° (SSE) 3,274 9.6 -7.1°
Drops below altitude 10° 04:26:00 10° 84° (E) 5,041 12.0 -4.4°
Sets 04:29:15 0° 82° (E) 5,747 12.5 -3.8°
